Date_and_time,latitude,longitude,wind_speed,RelWindDirFrom,WindDirFrom,air_pressure,air_temperature,relative_humidity,Temp,platform_speed_wrt_ground,air_pressure_at_mean_sea_level,platform_orientation
2019-09-10 23:30,50.6304616666667,-96.980785,14.4,17.4,69,992.44,15.0,75,16.07,0.0,1018.97,48.3
2019-09-10 23:40,50.6304566666667,-96.980765,15.8,18.7,75,992.52,14.9,76,16.08,0.0,1019.07,48.3
2019-09-10 23:50,50.6304616666667,-96.9807716666667,14.7,19.0,81,992.57,14.6,82,16.07,0.0,1019.16,48.3
2019-09-11 00:00,50.6304616666667,-96.9807733333333,10.8,14.2,87,992.67,14.4,82,16.05,0.0,1019.28,360.0
2019-09-11 00:10,50.6304583333333,-96.9807833333333,9.8,16.6,83,992.64,14.4,77,16.04,0.0,1019.24,360.0
2019-09-11 00:20,50.63046,-96.9807833333333,13.6,16.3,73,992.62,14.7,72,16.04,0.0,1019.20,360.0
2019-09-11 00:30,50.63046,-96.98078,12.7,15.0,72,992.77,14.9,73,16.03,0.0,1019.34,360.0
2019-09-11 00:40,50.63046,-96.9807783333333,13.0,15.5,73,993.06,14.9,72,16.02,0.0,1019.63,360.0
2019-09-11 00:50,50.63046,-96.9807816666667,13.0,14.7,71,993.11,14.9,73,16.01,0.0,1019.68,360.0
2019-09-11 01:00,50.6304616666667,-96.9807816666667,11.6,14.2,74,993.14,14.8,73,16.00,0.0,1019.70,270.0
2019-09-11 01:10,50.63043,-96.9807816666667,11.9,13.8,74,993.24,14.8,73,15.99,0.0,1019.79,270.0
2019-09-11 01:20,50.6304466666667,-96.98078,12.5,14.7,68,993.40,14.8,71,15.99,0.0,1019.95,270.0
2019-09-11 01:30,50.6304466666667,-96.9807766666667,12.6,15.7,70,993.51,14.8,71,16.01,0.0,1020.06,270.0
2019-09-11 01:40,50.6304483333333,-96.980775,14.0,16.3,71,993.55,14.8,70,16.02,0.0,1020.13,270.0
2019-09-11 01:50,50.6304783333333,-96.9808033333333,13.2,15.8,70,993.64,14.7,69,16.00,0.0,1020.23,270.0
2019-09-11 02:00,50.6304683333333,-96.9807883333333,11.4,13.5,62,993.86,14.7,71,16.00,0.0,1020.46,270.0
2019-09-11 02:10,50.6304666666667,-96.9807883333333,10.8,13.2,67,994.10,14.6,71,16.00,0.0,1020.70,270.0
2019-09-11 02:20,50.630465,-96.98079,11.1,13.5,68,994.12,14.6,72,16.02,0.0,1020.71,270.0
2019-09-11 02:30,50.6304666666667,-96.9807883333333,11.3,14.0,68,994.29,14.6,73,16.04,0.0,1020.88,270.0
2019-09-11 02:40,50.6304683333333,-96.9807883333333,11.9,16.4,71,994.34,14.7,75,16.05,0.0,1020.93,270.0
2019-09-11 02:50,50.63045,-96.9807683333333,12.5,14.6,70,994.49,14.6,74,16.06,0.0,1021.09,270.0
2019-09-11 03:00,50.630455,-96.980775,13.0,15.4,77,994.59,14.6,73,16.06,0.0,1021.20,360.0
2019-09-11 03:10,50.6304566666667,-96.9807766666667,13.1,16.5,83,994.66,14.6,73,16.07,0.0,1021.27,360.0
2019-09-11 03:20,50.6304583333333,-96.9807766666667,13.6,17.4,86,994.81,14.5,73,16.07,0.0,1021.43,360.0
2019-09-11 03:30,50.6304566666667,-96.9807783333333,14.3,18.3,85,994.67,14.5,73,16.06,0.0,1021.28,360.0
2019-09-11 03:40,50.6304583333333,-96.98078,14.4,17.5,79,994.69,14.3,74,16.06,0.0,1021.32,360.0
2019-09-11 03:50,50.6304583333333,-96.9807816666667,12.0,15.0,87,994.98,14.3,76,16.05,0.0,1021.62,360.0
2019-09-11 04:00,50.6304583333333,-96.9807816666667,12.5,15.7,84,994.95,14.2,76,16.05,0.0,1021.59,360.0
2019-09-11 04:10,50.6304583333333,-96.9807833333333,11.5,14.5,84,994.85,14.1,76,16.05,0.0,1021.49,360.0
2019-09-11 04:20,50.6304583333333,-96.9807833333333,11.4,14.3,84,994.91,14.0,76,16.05,0.0,1021.56,360.0
2019-09-11 04:30,50.6304583333333,-96.9807833333333,10.4,13.4,82,995.01,14.0,77,16.04,0.0,1021.66,360.0
2019-09-11 04:40,50.6304583333333,-96.9807833333333,10.8,14.2,83,995.05,13.9,78,16.04,0.0,1021.71,360.0
2019-09-11 04:50,50.6304683333333,-96.9807883333333,10.4,13.8,84,995.02,13.9,78,16.04,0.0,1021.68,360.0
2019-09-11 05:00,50.6304633333333,-96.9807833333333,10.7,13.1,77,995.24,13.8,79,16.04,0.0,1021.90,131.7
2019-09-11 05:10,50.6304616666667,-96.980785,10.7,13.3,77,995.19,13.8,79,16.03,0.0,1021.86,131.7
2019-09-11 05:20,50.6304583333333,-96.9807866666667,10.2,13.7,79,995.35,13.7,79,16.03,0.0,1022.03,131.7
2019-09-11 05:30,50.6304566666667,-96.980785,9.4,12.4,82,995.52,13.7,79,16.03,0.0,1022.21,131.7
2019-09-11 05:40,50.6304566666667,-96.9807816666667,10.6,14.5,86,995.70,13.7,80,16.04,0.0,1022.40,131.7
2019-09-11 05:50,50.6304566666667,-96.9807783333333,11.2,13.7,97,995.86,13.8,79,16.04,0.0,1022.57,131.7
2019-09-11 06:00,50.630465,-96.980775,11.0,13.6,97,995.99,13.8,80,16.03,0.0,1022.70,360.0
2019-09-11 06:10,50.6304666666667,-96.9807766666667,10.5,13.0,90,996.00,13.7,80,16.02,0.0,1022.72,360.0
2019-09-11 06:20,50.6304666666667,-96.9807783333333,9.9,12.5,92,996.26,13.6,80,16.01,0.0,1022.99,360.0
2019-09-11 06:30,50.6304666666667,-96.98078,9.3,12.4,85,996.41,13.6,81,16.00,0.0,1023.15,360.0
2019-09-11 06:40,50.630465,-96.9807816666667,9.7,12.0,86,996.29,13.6,81,15.98,0.0,1023.03,360.0
2019-09-11 06:50,50.630465,-96.98078,10.5,15.4,82,996.27,13.5,80,15.98,0.0,1023.02,360.0
2019-09-11 07:00,50.630465,-96.9807816666667,10.5,13.8,85,996.24,13.5,81,15.98,0.0,1022.98,360.0
2019-09-11 07:10,50.63047,-96.9807816666667,11.0,14.1,77,996.18,13.4,81,15.98,0.0,1022.93,360.0
2019-09-11 07:20,50.6304683333333,-96.9807916666667,11.1,13.2,74,996.27,13.4,81,15.99,0.0,1023.03,360.0
2019-09-11 07:30,50.6304566666667,-96.9807866666667,11.6,13.9,70,996.31,13.4,81,15.99,0.0,1023.07,360.0
2019-09-11 07:40,50.6304616666667,-96.980785,11.2,13.4,71,996.12,13.4,82,15.97,0.0,1022.87,360.0
2019-09-11 07:50,50.6304516666667,-96.980785,12.7,15.9,71,996.07,13.4,83,15.97,0.0,1022.82,360.0
2019-09-11 08:00,50.630455,-96.9807916666667,13.4,15.3,70,996.24,13.3,84,16.00,0.0,1023.00,360.0
2019-09-11 08:10,50.6304566666667,-96.9807866666667,14.4,16.7,73,996.31,13.2,85,16.01,0.0,1023.08,360.0
2019-09-11 08:20,50.630455,-96.9807816666667,14.9,17.4,73,996.36,13.1,84,15.99,0.0,1023.14,360.0
2019-09-11 08:30,50.630455,-96.9807833333333,14.9,17.5,74,996.47,13.1,85,15.97,0.0,1023.25,360.0
2019-09-11 08:40,50.630455,-96.9807816666667,14.4,17.1,73,996.47,13.1,85,15.96,0.0,1023.25,360.0
2019-09-11 08:50,50.630455,-96.98078,14.5,16.8,73,996.53,13.1,86,15.96,0.0,1023.32,360.0
2019-09-11 09:00,50.6304533333333,-96.9807783333333,13.8,17.3,76,996.59,13.1,86,15.96,0.0,1023.39,183.2
2019-09-11 09:10,50.6304533333333,-96.9807783333333,14.3,17.4,75,996.58,13.0,87,15.96,0.0,1023.38,183.2
2019-09-11 09:20,50.6304533333333,-96.98078,13.6,16.2,78,996.52,13.0,87,15.95,0.0,1023.32,183.2
2019-09-11 09:30,50.6304533333333,-96.9807783333333,12.3,15.1,76,996.59,13.0,87,15.96,0.0,1023.39,183.2
2019-09-11 09:40,50.6304533333333,-96.9807783333333,12.2,15.2,80,996.55,13.0,86,15.98,0.0,1023.35,183.2
2019-09-11 09:50,50.6304533333333,-96.9807783333333,13.0,15.2,75,996.63,12.9,86,15.99,0.0,1023.44,183.2
2019-09-11 10:00,50.6304516666667,-96.9807783333333,12.7,16.5,73,996.78,12.9,87,16.00,0.0,1023.60,161.1
2019-09-11 10:10,50.6304516666667,-96.9807766666667,13.1,16.4,74,996.85,12.9,87,15.98,0.0,1023.67,161.1
2019-09-11 10:20,50.6304516666667,-96.9807766666667,14.2,17.1,75,996.84,12.9,87,15.98,0.0,1023.66,161.1
2019-09-11 10:30,50.6304516666667,-96.9807766666667,14.6,17.5,78,996.67,12.9,88,15.97,0.0,1023.50,161.1
2019-09-11 10:40,50.6304516666667,-96.9807766666667,15.0,18.7,79,996.58,12.8,87,15.95,0.0,1023.40,161.1
2019-09-11 10:50,50.6304516666667,-96.9807766666667,13.4,17.4,82,996.79,12.6,87,15.94,0.0,1023.63,161.1
2019-09-11 11:00,50.6304516666667,-96.9807766666667,13.0,18.3,80,996.73,12.6,87,15.94,0.0,1023.57,90.0
2019-09-11 11:10,50.6304516666667,-96.9807766666667,13.4,17.0,77,996.78,12.6,86,15.94,0.0,1023.62,90.0
2019-09-11 11:20,50.6304516666667,-96.9807783333333,13.3,16.2,74,996.99,12.7,85,15.94,0.0,1023.84,90.0
2019-09-11 11:30,50.6304516666667,-96.9807783333333,13.0,16.0,73,997.16,12.7,84,15.94,0.0,1024.01,90.0
2019-09-11 11:40,50.6304516666667,-96.9807783333333,12.1,16.1,78,997.14,12.7,84,15.94,0.0,1023.99,90.0
2019-09-11 11:50,50.6304533333333,-96.9807783333333,10.7,14.9,84,997.52,12.7,85,15.93,0.0,1024.38,90.0
2019-09-11 12:00,50.6304533333333,-96.9807783333333,11.1,14.0,81,997.66,12.6,85,15.93,0.0,1024.52,0.0
2019-09-11 12:10,50.6304533333333,-96.9807783333333,10.5,14.7,81,997.69,12.6,86,15.93,0.0,1024.56,0.0
2019-09-11 12:20,50.6304616666667,-96.9807733333333,11.6,15.1,76,997.78,12.6,87,15.90,0.0,1024.66,0.0
2019-09-11 12:30,50.6304583333333,-96.98078,11.4,15.1,76,997.67,12.6,87,15.87,0.0,1024.55,0.0
2019-09-11 12:40,50.630455,-96.9807766666667,12.1,14.6,79,997.68,12.7,87,15.84,0.0,1024.56,0.0
2019-09-11 12:50,50.6304533333333,-96.9807766666667,14.1,16.3,76,997.68,12.7,86,15.81,0.0,1024.56,0.0
2019-09-11 13:00,50.6304483333333,-96.9807716666667,14.5,16.5,73,997.69,12.7,86,15.79,0.0,1024.56,125.3
2019-09-11 13:10,50.630445,-96.98078,13.9,17.2,76,997.94,12.8,85,15.79,0.0,1024.82,125.3
2019-09-11 13:20,50.6304483333333,-96.98078,13.0,16.0,70,997.84,12.8,87,15.81,0.0,1024.72,125.3
2019-09-11 13:30,50.63045,-96.98078,13.4,16.0,71,997.76,12.7,86,15.82,0.0,1024.64,125.3
2019-09-11 13:40,50.6304516666667,-96.9807783333333,14.4,17.2,68,997.59,12.7,87,15.83,0.0,1024.47,125.3
2019-09-11 13:50,50.6304516666667,-96.98078,12.4,15.1,69,998.23,12.8,87,15.84,0.0,1025.11,125.3
2019-09-11 14:00,50.6304516666667,-96.98078,12.7,16.6,79,998.36,12.7,86,15.84,0.0,1025.26,270.0
2019-09-11 14:10,50.6304533333333,-96.9807833333333,12.7,16.2,86,998.38,12.9,84,15.82,0.0,1025.27,270.0
2019-09-11 14:20,50.6304616666667,-96.9808066666667,14.1,16.9,84,998.45,12.9,86,15.78,0.0,1025.34,270.0
2019-09-11 14:30,50.6304466666667,-96.9807766666667,14.6,16.9,83,998.50,13.1,83,15.73,0.0,1025.37,270.0
2019-09-11 14:40,50.63045,-96.9807783333333,14.0,16.0,85,998.40,13.3,81,15.70,0.0,1025.26,270.0
2019-09-11 14:50,50.6304533333333,-96.98078,14.2,17.7,85,998.44,13.5,80,15.67,0.0,1025.30,270.0
2019-09-11 15:00,50.63045,-96.98078,14.1,16.9,86,998.67,13.4,80,15.65,0.0,1025.53,90.0
2019-09-11 15:10,50.6304466666667,-96.9807783333333,15.1,17.6,83,998.64,13.4,78,15.64,0.0,1025.51,90.0
2019-09-11 15:20,50.630455,-96.9807816666667,14.1,17.1,84,998.73,13.6,74,15.63,0.0,1025.59,90.0
2019-09-11 15:30,50.6304566666667,-96.980785,14.3,16.8,86,998.81,13.8,72,15.61,0.0,1025.67,90.0
2019-09-11 15:40,50.6304566666667,-96.9807833333333,15.1,17.1,86,998.82,13.8,74,15.61,0.0,1025.67,90.0
2019-09-11 15:50,50.6304683333333,-96.980795,14.1,16.9,82,998.82,13.9,74,15.61,0.0,1025.67,90.0
2019-09-11 16:00,50.6304533333333,-96.9807833333333,15.2,17.7,83,998.71,13.9,75,15.62,0.0,1025.55,299.2
2019-09-11 16:10,50.6304516666667,-96.9807833333333,14.4,16.6,83,998.87,13.8,76,15.63,0.0,1025.71,299.2
2019-09-11 16:20,50.6304533333333,-96.980785,13.5,16.2,81,998.87,13.5,76,15.65,0.0,1025.72,299.2
2019-09-11 16:30,50.6304583333333,-96.980785,11.1,13.6,76,998.95,13.3,76,15.66,0.0,1025.80,299.2
2019-09-11 16:40,50.6304566666667,-96.9807833333333,11.0,12.9,73,999.08,13.3,75,15.67,0.0,1025.93,299.2
2019-09-11 16:50,50.63046,-96.9807866666667,9.7,12.3,65,999.07,13.1,75,15.68,0.0,1025.93,299.2
2019-09-11 17:00,50.6304666666667,-96.98079,9.2,11.6,61,999.06,13.0,76,15.71,0.0,1025.92,336.5
2019-09-11 17:10,50.630455,-96.9807916666667,9.8,13.1,74,999.01,13.2,74,15.73,0.0,1025.85,336.5
2019-09-11 17:20,50.6304583333333,-96.9807916666667,10.1,13.2,62,999.00,13.1,74,15.75,0.0,1025.84,336.5
2019-09-11 17:30,50.63046,-96.9807883333333,10.7,14.4,55,998.88,13.1,75,15.76,0.0,1025.72,336.5
2019-09-11 17:40,50.630455,-96.9807866666667,11.4,14.2,64,998.89,13.3,75,15.78,0.0,1025.71,336.5
2019-09-11 17:50,50.6304516666667,-96.9807833333333,12.0,14.9,59,998.94,13.3,74,15.79,0.0,1025.76,336.5
2019-09-11 18:00,50.63045,-96.9808033333333,12.7,14.6,62,998.99,13.4,75,15.79,0.0,1025.82,270.0
2019-09-11 18:10,50.6304466666667,-96.980785,13.1,16.0,61,998.89,13.3,74,15.81,0.0,1025.73,270.0
2019-09-11 18:20,50.6304483333333,-96.98078,13.6,16.4,61,998.80,13.3,73,15.81,0.0,1025.65,270.0
2019-09-11 18:30,50.63045,-96.9807816666667,13.5,15.6,61,998.76,13.3,74,15.82,0.0,1025.61,270.0
2019-09-11 18:40,50.630445,-96.9807883333333,12.5,15.0,61,998.89,13.3,73,15.82,0.0,1025.75,270.0
2019-09-11 18:50,50.6304516666667,-96.9807866666667,12.5,14.2,66,998.85,13.4,72,15.82,0.0,1025.72,270.0
2019-09-11 19:00,50.63045,-96.980785,12.5,14.7,60,998.74,13.4,72,15.82,0.0,1025.58,90.0
2019-09-11 19:10,50.6304516666667,-96.9807883333333,12.1,15.0,58,998.78,13.4,72,15.82,0.0,1025.63,90.0
2019-09-11 19:20,50.63045,-96.9807866666667,11.3,13.2,59,998.90,13.4,72,15.82,0.0,1025.76,90.0
2019-09-11 19:30,50.63045,-96.9807866666667,11.4,14.5,58,999.05,13.5,72,15.81,0.0,1025.90,90.0
2019-09-11 19:40,50.6304666666667,-96.9807966666667,11.1,14.2,59,999.07,13.5,72,15.80,0.0,1025.92,90.0
2019-09-11 19:50,50.6304616666667,-96.9807916666667,11.9,14.9,58,998.97,13.5,72,15.79,0.0,1025.81,90.0
2019-09-11 20:00,50.6304583333333,-96.98079,12.0,14.1,64,998.91,13.7,71,15.80,0.0,1025.74,360.0
2019-09-11 20:10,50.6304583333333,-96.9807866666667,12.2,14.7,58,998.92,13.6,73,15.80,0.0,1025.76,360.0
2019-09-11 20:20,50.630455,-96.9807833333333,12.0,15.3,59,998.89,13.6,72,15.81,0.0,1025.73,360.0
2019-09-11 20:30,50.6304533333333,-96.9807816666667,11.6,14.4,58,998.81,13.5,71,15.82,0.0,1025.65,360.0
2019-09-11 20:40,50.6304566666667,-96.9807883333333,11.6,13.6,57,998.60,13.6,70,15.84,0.0,1025.43,360.0
2019-09-11 20:50,50.6304616666667,-96.9807766666667,10.9,13.8,61,998.70,13.7,70,15.86,0.0,1025.53,360.0
2019-09-11 21:00,50.6304533333333,-96.9807833333333,10.7,13.5,65,998.60,13.8,70,15.89,0.0,1025.42,90.0
2019-09-11 21:10,50.6304333333333,-96.98077,10.1,12.7,70,998.47,13.9,68,15.93,0.0,1025.27,90.0
2019-09-11 21:20,50.630465,-96.98082,12.1,16.0,72,998.31,14.3,66,15.94,0.0,1025.09,90.0
2019-09-11 21:30,50.6304533333333,-96.9807983333333,9.5,12.1,79,998.31,14.6,64,15.95,0.0,1025.08,90.0
2019-09-11 21:40,50.6304533333333,-96.98079,8.4,11.3,84,998.37,15.2,63,15.95,0.0,1025.11,90.0
2019-09-11 21:50,50.6304533333333,-96.9807866666667,8.9,12.8,81,998.42,15.3,64,15.95,0.0,1025.15,90.0
2019-09-11 22:00,50.6304516666667,-96.9807866666667,8.0,11.3,82,998.46,15.2,63,15.92,0.0,1025.19,270.0
2019-09-11 22:10,50.6304566666667,-96.9807683333333,7.1,10.1,86,998.48,15.3,62,15.90,0.0,1025.21,270.0
2019-09-11 22:20,50.63045,-96.9807733333333,7.4,10.7,88,998.55,15.0,65,15.90,0.0,1025.30,270.0
2019-09-11 22:30,50.63045,-96.9807716666667,7.8,10.8,92,998.61,14.9,65,15.91,0.0,1025.36,270.0
2019-09-11 22:40,50.6304516666667,-96.9807733333333,8.3,10.8,96,998.79,14.8,66,15.92,0.0,1025.54,270.0
2019-09-11 22:50,50.6304516666667,-96.9807766666667,8.2,10.8,96,998.83,14.8,65,15.90,0.0,1025.59,270.0
2019-09-11 23:00,50.6304533333333,-96.98078,7.7,10.3,97,998.84,14.9,66,15.86,0.0,1025.58,167.4
2019-09-11 23:10,50.6304533333333,-96.98078,8.5,11.5,98,998.88,14.9,66,15.85,0.0,1025.60,167.4
2019-09-11 23:20,50.6304533333333,-96.98078,9.9,12.1,101,998.82,15.2,66,15.85,0.0,1025.51,167.4
2019-09-11 23:30,50.6304533333333,-96.98078,10.4,12.3,103,998.77,15.2,65,15.84,0.0,1025.44,167.4
2019-09-11 23:40,50.6304516666667,-96.9807783333333,10.5,12.4,106,998.83,15.1,66,15.83,0.0,1025.50,167.4
